TimePST,TemperatureF,Dew PointF,Humidity,Sea Level PressureIn,VisibilityMPH,Wind Direction,Wind SpeedMPH,Gust SpeedMPH,PrecipitationIn,Events,Conditions,WindDirDegrees,DateUTC
12:01 AM,26.6,24.8,93,30.22,0.5,Calm,Calm,-,N/A,Fog,Light Freezing Fog,0,2013-01-21 08:01:00
12:04 AM,26.6,26.6,100,30.22,0.2,Calm,Calm,-,N/A,Fog,Light Freezing Fog,0,2013-01-21 08:04:00
12:50 AM,26.6,24.8,93,30.22,1.0,Calm,Calm,-,N/A,,Mist,0,2013-01-21 08:50:00
12:51 AM,26.6,24.8,93,30.22,1.2,Calm,Calm,-,N/A,,Partly Cloudy,0,2013-01-21 08:51:00
12:53 AM,26.1,25.0,96,30.22,2.5,Calm,Calm,-,N/A,,Partly Cloudy,0,2013-01-21 08:53:00
1:00 AM,26.6,24.8,93,30.22,5.0,Calm,Calm,-,N/A,,Partly Cloudy,0,2013-01-21 09:00:00
1:10 AM,26.6,24.8,93,30.22,1.8,Calm,Calm,-,N/A,,Clear,0,2013-01-21 09:10:00
1:19 AM,26.6,24.8,93,30.22,1.0,Calm,Calm,-,N/A,,Clear,0,2013-01-21 09:19:00
1:29 AM,26.6,26.6,100,30.22,0.2,Calm,Calm,-,N/A,Fog,Light Freezing Fog,0,2013-01-21 09:29:00
1:53 AM,26.1,25.0,96,30.24,0.2,Calm,Calm,-,N/A,Fog,Light Freezing Fog,0,2013-01-21 09:53:00
2:53 AM,26.1,25.0,96,30.23,0.2,Calm,Calm,-,N/A,Fog,Light Freezing Fog,0,2013-01-21 10:53:00
3:35 AM,24.8,24.8,100,30.20,1.2,NNE,3.5,-,N/A,,Partly Cloudy,20,2013-01-21 11:35:00
3:38 AM,24.8,24.8,100,30.20,2.0,Calm,Calm,-,N/A,,Partly Cloudy,0,2013-01-21 11:38:00
3:53 AM,25.0,24.1,96,30.21,2.5,Calm,Calm,-,N/A,,Clear,0,2013-01-21 11:53:00
3:56 AM,24.8,24.8,100,30.20,1.2,Calm,Calm,-,N/A,,Clear,0,2013-01-21 11:56:00
4:01 AM,24.8,23.0,93,30.20,0.2,Calm,Calm,-,N/A,Fog,Light Freezing Fog,0,2013-01-21 12:01:00
4:21 AM,26.6,24.8,93,30.18,1.0,NE,3.5,-,N/A,,Clear,50,2013-01-21 12:21:00
4:24 AM,26.6,26.6,100,30.18,3.0,Calm,Calm,-,N/A,,Clear,0,2013-01-21 12:24:00
4:53 AM,24.1,23.0,96,30.18,4.0,Calm,Calm,-,N/A,,Clear,0,2013-01-21 12:53:00
5:53 AM,25.0,25.0,100,30.17,5.0,Calm,Calm,-,N/A,,Clear,0,2013-01-21 13:53:00
6:53 AM,24.1,23.0,96,30.17,4.0,Calm,Calm,-,N/A,,Clear,0,2013-01-21 14:53:00
7:53 AM,25.0,24.1,96,30.16,5.0,Calm,Calm,-,N/A,,Clear,0,2013-01-21 15:53:00
8:53 AM,28.0,27.0,96,30.17,4.0,Calm,Calm,-,N/A,,Clear,0,2013-01-21 16:53:00
9:53 AM,33.1,33.1,100,30.19,5.0,Calm,Calm,-,N/A,,Clear,0,2013-01-21 17:53:00
10:53 AM,39.9,35.1,83,30.19,5.0,Calm,Calm,-,N/A,,Haze,0,2013-01-21 18:53:00
11:53 AM,45.0,37.0,74,30.17,5.0,Calm,Calm,-,N/A,,Haze,0,2013-01-21 19:53:00
12:53 PM,48.9,37.9,66,30.14,5.0,Calm,Calm,-,N/A,,Haze,0,2013-01-21 20:53:00
1:53 PM,52.0,36.0,54,30.11,5.0,SW,3.5,-,N/A,,Haze,230,2013-01-21 21:53:00
2:53 PM,50.0,33.1,52,30.10,5.0,WSW,4.6,-,N/A,,Haze,240,2013-01-21 22:53:00
3:53 PM,46.9,36.0,66,30.12,4.0,WSW,5.8,-,N/A,,Haze,250,2013-01-21 23:53:00
4:53 PM,39.9,35.1,83,30.11,-9999.0,Calm,Calm,-,N/A,,Clear,0,2013-01-22 00:53:00
5:53 PM,34.0,30.9,89,30.11,5.0,Calm,Calm,-,N/A,,Clear,0,2013-01-22 01:53:00
6:53 PM,30.9,30.0,96,30.12,5.0,Calm,Calm,-,N/A,,Clear,0,2013-01-22 02:53:00
7:53 PM,30.9,30.0,96,30.10,5.0,Calm,Calm,-,N/A,,Clear,0,2013-01-22 03:53:00
8:53 PM,28.0,27.0,96,30.09,4.0,Calm,Calm,-,N/A,,Clear,0,2013-01-22 04:53:00
9:53 PM,28.9,27.0,92,30.09,5.0,Calm,Calm,-,N/A,,Clear,0,2013-01-22 05:53:00
10:53 PM,32.0,30.0,92,30.08,5.0,Calm,Calm,-,N/A,,Clear,0,2013-01-22 06:53:00
11:53 PM,30.0,28.0,92,30.07,6.0,Calm,Calm,-,N/A,,Clear,0,2013-01-22 07:53:00